Погода в Уюке

Россия / Республика Тыва     52°04′37″N   94°01′51″E
темп.,
°C
ветер,
м/с
пор.,
м/с
влажн.,
%
обл.,
%
осадки,
мм/ч
давл.,
гПа
погр.,
м
18 октября, пн
пн1801:00−2ююв11645 0.0 102910
04:00−3ю117018 0.0 103010
07:00−4ю117438 0.0 103110
10:00+1всв015010 0.0 1030283
13:00+6ссв11385 0.0 1027732
16:00+6ссв11361 0.0 1026678
19:00+1ююв11530 0.0 102810
22:000ююв11600 0.0 103010
19 октября, вт
вт1901:00−2ююв11653 0.0 103110
04:00−3ююв11705 0.0 103110
07:00−3ю117165 0.0 103310
10:00+2в01485 0.0 1032287
13:00+6в11355 0.0 1029783
16:00+7в11334 0.0 1027785
19:00+1ююв22510 0.0 103013
22:000ююв11555 0.0 103110
20 октября, ср
ср2001:00−1ююв11575 0.0 103212
04:00−2ююв116119 0.0 103212
07:00−3ююв116423 0.0 103212
10:00+3вюв124389 0.0 1030304
13:00+7юв242951 0.0 1027790
16:00+7юв342989 0.0 1025528
19:00+2ююв2244100 0.0 102718
22:00+1ююв22486 0.0 102712
21 октября, чт
чт2101:000ююв11510 0.0 102713
04:00−1ююв11540 0.0 102711
07:00−2ююв11580 0.0 102811
10:00+3юв12405 0.0 1026285
13:00+7юв13295 0.0 1023858
16:00+8юв22295 0.0 1022730
19:00+2ююв22455 0.0 102413
22:000ююв11495 0.0 102511
22 октября, пт
пт2201:00−1ююв115456 0.0 102511
04:00−2ююв115763 0.0 102611
07:00−2ююв11605 0.0 102711
10:00+3вюв11395 0.0 1026258
13:00+8вюв12275 0.0 1022663
16:00+8юв222717 0.0 1021544
19:00+2юв22410 0.0 102319
22:00+1юв22415 0.0 102215